RH
10 9 9 8 6 6 5 5 5 5 6 6 6 6 7 7 7 8 7 8 8 8 8 7 7 6 6 5 5 7 8 9 10 10 11 11 11 13 15 16 19 21 20 24 26 27 29 34 42 47 51 52 53 53 54 58 63 66 66 67 69 71 73 71 72 71 72 73 73 72 70 72 71 68 66 57 53 53 49 46 44 47 50 48 46 45 46 48
10 9 9 8 8 6 5 5 5 5 6 6 7 8 8 8 9 9 9 9 9 9 9 8 7 6 6 5 5 6 6 7 7 9 11 10 10 10 12 14 18 20 19 21 23 24 27 34 41 46 49 49 51 52 54 59 62 64 66 67 66 68 69 70 72 73 74 76 76 75 72 74 73 71 69 59 51 49 47 45 45 48 51 47 45 47 48 48
10 9 9 8 8 8 6 5 5 6 7 8 8 9 9 9 9 9 9 9 9 9 8 8 7 7 6 6 5 5 6 7 7 9 10 10 9 8 9 11 16 18 18 20 20 21 25 32 40 45 48 47 48 51 54 57 60 62 63 63 63 64 66 69 73 75 76 77 77 77 76 76 76 74 72 64 51 46 45 44 44 46 49 48 47 50 50 48
10 10 9 9 9 8 7 7 6 6 7 8 8 8 8 8 8 8 8 8 8 8 8 8 7 7 6 5 5 5 8 9 9 10 10 10 9 8 7 9 14 16 17 18 18 19 22 29 37 42 44 43 42 45 47 52 58 60 60 60 63 65 64 68 72 74 76 77 77 77 78 78 76 74 75 69 53 47 45 42 43 45 47 48 50 51 50 49
10 10 9 9 9 8 8 8 7 7 7 7 7 7 7 6 7 7 7 7 8 8 8 8 7 6 5 5 6 7 9 10 11 12 11 10 9 8 7 8 11 14 15 15 15 17 20 28 37 40 40 38 37 39 41 50 55 55 59 61 64 65 62 66 70 71 73 76 77 78 80 80 77 75 76 72 55 47 46 41 42 43 44 45 49 51 50 51
9 9 9 9 9 9 9 8 8 8 7 7 7 7 7 7 7 7 8 8 8 8 8 8 7 6 5 6 7 8 10 11 14 14 12 11 9 9 8 7 9 11 13 12 14 15 19 31 38 37 36 34 35 36 36 45 49 47 53 59 63 65 63 67 69 68 71 75 76 78 81 82 81 77 77 74 56 44 43 41 41 42 44 45 47 49 50 53
9 9 9 9 9 9 9 9 8 8 8 9 8 9 8 8 8 8 9 9 8 7 7 7 7 7 7 8 9 10 12 13 15 14 13 11 10 9 8 8 8 9 11 11 13 14 21 35 38 34 33 31 32 34 32 39 44 42 49 55 60 64 64 66 65 65 70 75 77 79 82 84 83 79 78 77 58 44 43 40 41 43 45 46 46 48 49 51
9 9 8 9 9 9 9 9 9 9 9 9 9 9 9 9 9 10 9 9 9 7 6 8 9 9 9 10 11 11 12 14 15 15 13 11 10 8 8 8 7 9 10 10 12 14 24 37 38 32 31 30 29 31 32 37 41 41 47 54 58 61 62 63 61 63 69 74 77 80 85 88 86 81 81 78 59 48 46 41 43 45 46 47 46 48 48 48
10 9 9 8 8 8 8 9 9 9 8 8 9 9 9 9 10 10 9 9 9 8 7 9 10 10 10 11 11 11 11 12 14 16 14 12 10 8 8 8 7 8 8 9 10 14 27 39 38 32 30 28 26 30 34 36 39 42 47 53 56 58 59 58 58 64 70 74 79 84 89 91 88 83 82 77 59 51 50 43 44 45 46 49 48 49 48 46
10 10 9 8 8 8 8 8 8 8 8 8 8 9 9 9 10 10 10 10 10 9 8 9 10 10 10 10 9 10 11 11 13 16 16 14 12 8 7 7 7 7 7 9 9 16 31 39 37 32 29 26 26 34 37 36 40 45 48 51 54 55 54 54 60 68 72 76 84 90 94 94 90 84 81 74 57 52 50 45 46 46 47 50 50 49 47 46
9 10 9 8 8 7 7 7 7 7 8 8 8 9 9 10 10 10 11 11 11 11 10 9 9 9 9 9 9 9 10 10 12 15 15 16 15 11 7 6 7 6 7 8 9 18 31 35 33 30 27 24 29 38 40 40 44 46 47 49 52 52 50 55 65 72 75 81 90 94 93 91 90 85 79 68 57 52 47 45 47 47 49 50 51 50 46 46
8 9 8 8 8 7 7 7 7 7 7 8 8 9 9 10 10 11 12 13 13 12 12 11 10 10 9 9 10 10 10 11 11 12 13 14 15 14 9 6 5 5 6 7 8 16 27 30 29 29 25 23 32 41 43 44 44 45 47 48 51 49 48 58 67 71 78 86 89 91 92 91 89 84 75 62 56 53 45 44 47 48 50 51 53 50 45 46
8 8 8 7 7 6 6 6 7 7 7 8 9 9 10 10 10 12 13 14 14 13 13 12 11 11 11 10 10 10 11 11 11 11 12 12 13 14 12 8 5 5 7 7 8 14 21 24 26 29 25 23 32 42 46 45 43 44 45 45 49 48 51 62 68 73 82 86 85 89 94 93 88 80 69 59 57 54 45 42 46 49 50 50 53 50 46 46
7 7 7 7 6 6 6 6 6 7 8 9 9 9 10 10 11 13 14 15 14 14 14 13 12 12 12 11 10 10 10 9 9 10 11 12 12 13 13 11 8 7 8 8 9 12 15 19 25 29 25 25 35 43 45 44 42 44 44 46 50 50 55 63 68 74 82 84 85 89 91 89 83 72 64 60 59 55 46 42 44 48 50 48 50 50 47 47
6 6 7 6 6 6 6 6 6 7 8 9 9 9 9 11 12 14 15 15 14 13 13 12 12 12 12 12 11 10 10 8 8 9 10 12 12 12 12 12 10 9 9 9 10 11 14 19 25 29 29 32 39 42 42 42 40 41 45 52 54 53 56 62 68 76 80 81 83 85 85 84 77 69 65 62 62 57 48 44 42 47 51 48 47 48 47 47
6 6 6 6 6 6 6 6 7 8 9 9 9 9 10 11 13 13 14 13 12 11 12 12 12 12 13 12 11 11 10 9 8 9 10 11 12 12 12 11 9 9 9 9 10 12 16 21 27 33 37 37 39 39 40 40 40 41 45 54 59 56 55 60 69 77 80 78 79 80 81 79 75 72 69 64 62 58 52 48 43 45 52 52 49 47 46 47
6 5 6 6 5 5 6 6 8 9 9 9 10 10 10 11 12 13 13 12 12 11 12 12 12 13 12 12 12 12 11 10 10 10 11 12 12 12 11 10 9 9 9 10 11 14 19 21 26 34 37 36 36 37 36 37 38 42 47 54 60 60 58 62 69 77 79 78 78 77 75 75 75 72 68 65 63 59 55 53 46 43 50 54 53 49 46 45
5 5 5 5 5 6 6 7 8 9 9 10 11 12 12 12 13 13 13 13 12 13 13 12 13 14 12 12 13 12 11 12 11 12 12 12 12 12 11 9 8 9 9 10 12 16 18 19 22 29 34 36 36 34 34 36 38 43 49 54 57 60 64 68 74 79 79 79 81 79 75 73 71 67 65 65 63 59 58 56 49 43 46 52 55 51 46 44
5 5 5 5 5 6 6 7 9 9 9 11 12 13 14 14 14 14 14 13 13 14 14 13 14 15 14 13 13 12 12 12 12 12 12 12 12 12 11 9 8 9 9 11 14 15 17 17 19 24 30 35 38 36 35 35 37 41 49 55 55 58 63 67 76 82 80 80 82 79 77 75 71 68 67 66 64 60 57 57 54 46 43 49 52 49 45 44
5 5 5 5 5 6 7 8 9 9 10 12 13 15 15 16 16 15 14 14 14 15 14 14 15 16 15 15 14 13 11 11 11 11 11 12 12 11 11 9 8 9 10 12 14 14 15 17 19 21 24 31 37 38 35 32 34 38 43 50 54 57 59 60 69 78 79 80 80 78 78 77 73 71 70 68 66 62 57 58 58 51 44 44 47 46 43 43
5 5 5 5 6 7 7 8 10 9 10 13 15 17 17 17 17 16 15 15 14 15 15 15 16 17 16 16 15 14 12 12 11 11 11 12 12 11 11 10 9 9 11 12 13 13 14 16 18 19 21 24 29 32 32 29 29 31 35 40 45 48 52 55 61 70 75 78 80 78 78 78 75 73 71 70 69 66 61 58 59 56 46 41 43 44 42 42
5 5 5 5 6 7 7 9 11 10 10 13 16 18 17 17 17 17 17 16 16 16 16 16 17 16 16 16 15 14 14 12 11 11 11 12 12 11 11 10 9 9 10 11 12 13 13 14 15 17 20 22 24 27 29 28 26 27 29 33 37 40 45 55 63 67 72 76 77 78 79 79 78 75 72 73 73 71 65 58 58 58 50 43 42 43 41 41
5 5 5 5 6 7 8 11 13 12 12 14 16 18 18 17 17 17 18 17 17 16 16 17 16 15 15 16 15 15 15 14 13 12 12 12 12 11 11 10 10 10 10 10 12 13 12 12 12 13 17 19 22 24 26 27 25 25 26 29 39 46 45 49 58 64 69 72 73 76 77 76 78 76 73 74 76 76 72 64 58 57 54 48 45 45 43 41
6 5 5 5 7 7 9 12 14 13 14 15 16 18 18 17 17 17 17 18 19 18 17 16 15 15 16 16 15 16 15 15 14 13 13 13 13 12 12 13 13 13 13 13 13 13 12 11 11 12 13 15 18 21 23 25 23 24 26 28 42 54 48 45 52 57 63 66 66 71 76 74 74 75 72 72 76 78 77 72 64 58 55 53 51 49 46 42
8 5 5 5 6 8 10 13 14 14 15 17 18 19 18 17 17 17 17 19 19 18 16 16 16 16 16 16 16 16 15 15 15 14 14 14 14 13 13 14 14 15 15 15 14 13 13 12 12 12 12 13 14 16 19 21 20 22 24 27 40 52 52 52 52 50 58 64 60 65 73 72 70 72 69 69 73 76 77 76 71 64 58 54 52 51 50 45
10 6 5 5 6 8 10 13 14 14 16 19 20 20 18 17 17 17 18 18 17 15 15 15 15 15 16 16 16 17 17 16 15 15 15 15 15 14 14 14 14 16 16 15 15 15 15 15 14 13 13 13 13 14 15 17 18 19 21 26 36 48 55 57 51 44 53 62 60 61 68 69 68 68 68 69 72 73 74 75 74 71 67 59 53 51 52 49
11 8 6 5 6 7 10 13 14 15 16 19 21 22 19 17 17 18 19 18 16 15 15 15 14 14 15 16 16 18 19 17 16 16 16 17 16 16 17 16 15 17 17 16 18 18 17 17 16 14 14 13 13 14 13 14 15 16 20 24 33 49 59 58 51 44 48 56 61 64 69 73 71 67 67 70 73 72 71 72 72 73 73 67 58 52 51 51
11 10 7 5 5 7 9 11 14 15 16 18 21 22 21 19 19 21 20 18 16 15 14 14 13 14 14 15 16 18 19 18 19 18 17 18 17 17 19 17 16 18 17 17 20 20 18 18 19 16 15 14 13 14 13 12 15 19 22 26 38 54 61 60 57 55 52 54 62 71 74 75 70 65 66 69 72 73 71 71 71 72 75 72 65 57 52 51
12 11 8 6 5 6 8 10 13 14 16 18 21 23 22 21 21 21 21 17 15 14 14 13 12 13 13 14 15 16 17 18 20 19 19 20 19 19 20 17 17 18 18 18 20 20 19 19 19 18 17 16 14 15 14 13 18 23 23 28 42 56 62 64 61 61 63 59 63 71 73 72 67 62 65 68 70 71 70 72 73 73 75 75 70 64 58 53
12 11 9 7 6 6 7 9 12 14 16 17 20 23 24 22 22 22 21 17 14 14 13 12 12 13 13 13 14 16 17 18 19 19 20 21 20 20 20 18 18 19 19 20 19 21 21 20 20 19 19 18 17 17 16 15 21 23 22 27 41 54 62 65 63 65 69 64 61 66 67 68 65 60 63 66 69 71 70 72 73 73 75 75 74 70 65 59
11 11 10 7 6 6 7 8 11 14 15 16 20 23 24 24 23 22 20 17 14 14 13 13 13 13 14 14 14 15 16 17 18 19 19 21 20 20 20 20 21 20 20 21 20 21 21 21 21 20 20 19 18 19 18 20 22 22 23 25 37 56 64 66 68 67 64 61 60 64 67 70 67 60 60 62 64 67 69 70 69 70 73 75 75 73 69 65
11 10 10 8 6 6 7 8 10 13 15 16 20 23 24 25 23 20 18 16 14 13 14 14 13 14 14 14 14 15 16 17 18 19 20 21 20 20 21 21 22 21 22 22 22 22 21 21 22 22 22 20 20 20 20 22 22 23 28 24 31 57 68 66 67 63 59 62 65 66 70 72 66 60 58 57 58 62 66 70 69 67 70 73 75 73 71 70
10 10 10 9 7 6 7 8 11 14 16 17 20 22 24 25 22 19 18 15 13 13 13 14 14 15 15 14 15 16 16 17 18 19 20 21 20 20 21 21 21 21 23 23 22 23 22 22 22 22 23 22 20 21 21 23 22 22 29 25 24 44 58 62 67 64 62 66 69 70 71 70 65 61 59 57 57 60 65 70 70 67 68 72 75 74 72 71
9 9 10 10 8 7 7 9 12 15 17 19 21 22 24 23 21 20 19 15 13 13 12 13 15 15 16 15 15 16 17 18 19 19 20 20 20 20 21 22 21 21 21 23 24 24 24 24 24 23 24 23 22 22 21 23 23 22 23 22 21 29 38 50 62 64 66 72 77 79 74 68 67 66 64 61 60 62 64 66 67 66 66 69 74 76 74 72
9 8 9 10 8 7 8 9 14 17 19 20 22 23 24 24 22 21 19 16 15 14 13 14 16 16 16 17 16 16 17 18 20 20 20 20 21 22 22 22 23 22 21 23 24 25 26 26 25 24 25 25 24 25 22 22 24 25 24 23 24 27 29 39 51 56 61 68 74 78 72 63 64 66 64 64 63 65 66 65 65 66 65 67 72 76 76 73
10 9 9 11 9 8 8 10 14 17 20 22 23 24 24 23 21 19 19 18 16 15 15 15 15 16 17 17 17 17 17 18 20 21 22 23 22 22 23 23 23 23 22 23 24 26 27 26 26 26 27 26 26 27 26 25 26 27 29 28 27 27 27 33 43 48 53 58 61 66 68 63 60 63 65 65 65 67 68 66 67 66 65 68 72 75 77 76
11 10 10 12 11 10 9 11 13 17 20 22 24 26 25 22 19 19 20 20 18 16 16 16 16 17 18 18 17 17 17 18 20 21 22 24 23 22 23 22 23 23 23 24 24 26 26 27 28 27 28 29 28 28 28 28 28 27 30 32 30 29 27 29 40 49 52 57 56 56 64 68 65 65 67 65 66 70 72 70 69 68 67 68 71 74 77 78
13 12 12 13 13 11 11 12 14 17 20 23 28 31 27 22 20 20 20 20 18 16 16 17 18 17 19 19 18 18 18 18 20 21 22 23 23 23 22 22 22 23 24 25 25 25 26 28 29 28 29 30 30 30 31 31 30 28 30 33 33 35 34 31 38 47 53 61 60 53 58 72 75 73 74 73 73 76 78 77 74 73 72 69 69 73 78 80
15 15 15 15 13 13 13 14 16 17 19 23 29 31 27 24 23 22 21 21 18 16 15 17 18 18 19 20 19 19 19 19 21 22 22 22 22 22 22 22 22 23 25 25 26 27 27 28 30 29 29 30 31 32 35 37 35 32 33 34 33 35 36 36 36 41 49 62 67 58 55 67 77 78 78 79 79 79 81 83 79 76 77 76 73 74 77 80
16 17 17 16 14 14 15 17 18 19 20 22 28 30 28 26 25 23 22 21 18 16 15 17 19 19 20 20 18 19 19 20 20 21 22 22 21 21 20 20 21 22 24 25 26 28 29 29 30 30 29 31 34 35 37 40 39 38 39 39 38 34 32 35 37 38 42 51 62 62 57 63 72 74 73 74 77 79 80 83 82 78 80 83 81 77 77 79
17 18 18 17 15 15 16 19 21 21 21 23 26 29 28 26 26 25 23 21 19 16 16 17 18 19 20 20 18 18 19 19 20 20 21 20 20 20 20 20 21 21 23 25 26 28 30 31 31 32 32 35 38 38 38 40 40 41 42 43 45 41 36 36 39 41 41 42 49 56 59 65 68 66 66 67 72 77 78 81 82 80 80 81 81 81 80 79
18 18 18 18 17 17 18 22 25 24 22 22 24 26 27 27 28 27 24 22 20 17 16 17 18 19 20 20 20 20 20 20 20 20 20 20 20 20 20 21 21 21 22 23 25 27 30 32 32 33 35 36 39 39 39 41 40 41 43 43 44 45 44 44 42 43 45 44 45 49 57 68 69 64 63 64 68 72 74 79 84 82 80 79 79 81 81 78
19 18 19 20 19 20 21 25 28 25 22 23 24 24 26 27 28 27 25 23 21 19 18 18 19 20 20 21 21 20 20 20 20 20 20 20 21 20 21 22 22 22 22 22 24 28 31 33 33 34 37 36 37 38 38 39 40 42 45 46 44 44 46 49 48 47 48 48 48 45 52 65 68 66 67 65 66 69 71 76 82 81 80 80 79 81 81 79
21 20 21 24 24 23 24 27 28 26 23 23 25 25 27 28 28 27 26 24 22 21 20 20 20 19 20 21 21 20 20 20 20 20 20 21 21 21 22 23 23 23 22 22 24 25 29 33 33 34 38 39 39 39 38 39 40 43 45 46 46 46 45 48 52 54 53 57 54 45 49 64 68 69 72 70 68 69 71 74 77 77 78 78 78 77 76 77
24 22 24 27 29 28 28 29 29 27 26 25 26 28 29 30 30 28 27 26 24 22 21 21 20 20 22 23 23 23 22 21 21 21 21 21 21 22 22 24 25 25 26 26 24 22 26 30 31 31 34 37 40 40 40 41 42 44 46 48 48 48 45 45 51 54 55 61 63 57 58 68 68 66 71 73 72 71 71 72 74 76 77 75 73 73 71 71
31 26 28 31 33 33 32 34 33 31 30 28 28 29 31 31 31 30 29 27 25 23 21 21 22 23 25 26 26 25 24 22 21 21 21 21 21 21 22 23 25 28 31 29 24 24 26 28 29 31 31 33 36 37 38 40 42 43 46 48 49 47 45 45 50 56 56 59 67 70 67 68 67 65 68 74 76 74 70 70 73 77 78 75 71 71 70 69
38 34 36 37 36 36 38 39 38 36 33 30 29 29 31 33 33 31 29 27 25 23 22 22 23 24 26 27 27 27 26 25 23 22 21 22 21 21 21 22 22 25 29 27 22 24 26 25 26 30 30 31 33 35 36 38 40 43 45 46 47 48 48 48 54 62 61 60 68 75 72 70 68 66 68 73 76 74 70 69 72 76 78 75 72 70 70 68
42 40 42 41 39 40 42 42 42 41 37 33 32 31 31 34 34 32 30 28 25 24 23 24 25 25 26 28 27 28 29 28 27 25 24 24 23 21 21 22 22 22 24 23 22 24 24 23 24 25 25 29 31 33 35 38 41 44 45 46 49 49 49 52 57 63 64 66 72 77 77 75 71 67 67 71 75 76 74 72 74 77 78 77 74 71 70 68
46 43 43 43 42 45 46 47 47 45 40 38 37 34 32 35 36 34 32 30 28 25 24 25 26 26 27 28 30 32 31 28 27 28 28 25 24 23 22 22 22 21 21 20 21 23 22 23 26 25 24 27 29 29 31 34 39 43 46 49 52 52 52 53 56 61 65 71 74 76 79 78 75 72 71 72 75 74 74 79 81 81 81 79 77 75 73 71
48 44 42 41 43 48 52 52 51 48 45 44 41 36 34 37 38 37 35 32 29 27 26 25 27 29 29 30 32 32 30 28 27 26 26 24 24 26 25 23 21 20 20 19 20 20 20 23 27 25 24 27 29 29 30 31 34 39 43 47 51 54 54 54 55 57 61 68 71 73 80 82 79 78 76 74 74 71 75 85 86 83 82 80 78 78 76 74
49 47 45 43 43 49 55 55 53 50 48 47 45 41 38 39 40 40 38 34 31 28 26 26 28 31 32 33 33 30 29 30 29 26 25 24 23 25 24 23 21 20 19 19 18 18 19 21 24 23 21 24 27 29 30 32 34 36 39 44 48 52 54 55 58 57 58 64 68 71 79 84 83 81 77 75 75 75 79 86 84 81 81 80 77 77 75 73
52 53 55 52 46 46 52 54 53 51 49 50 50 47 43 42 43 42 39 36 33 29 27 28 29 32 34 34 34 31 29 30 30 29 28 26 25 23 22 22 20 17 19 20 17 20 21 20 20 20 18 22 27 28 30 34 35 36 38 41 47 52 53 55 59 61 61 65 67 67 71 78 80 79 77 77 79 80 82 84 83 82 81 79 77 76 73 71